Wind_Speed
17 14 12 11 8 5 4 4 4 4 6 8 11 10 9 6 7 8 8 9 9 7 6 5 5 5 5 5 5 6 5 4 8 10 12 14 14 15 15 18 16 15 14
15 12 9 7 5 3 4 4 6 7 9 11 12 12 11 11 9 11 12 12 13 11 9 8 8 6 5 7 8 7 8 7 6 9 12 13 14 16 18 18 19 16 15
9 7 5 3 3 2 5 6 7 8 9 13 13 14 13 11 9 8 9 10 13 12 10 8 10 9 12 14 10 10 10 9 9 8 11 13 14 16 18 19 20 20 17
4 4 5 5 4 5 7 8 8 9 11 14 13 14 15 12 10 9 9 10 9 12 13 13 14 15 14 14 7 12 13 12 12 11 10 12 13 15 17 19 21 22 20
5 4 4 5 5 6 7 9 11 13 15 16 14 14 14 13 10 10 9 10 10 12 13 14 16 13 12 13 15 14 15 18 14 12 12 11 12 13 17 19 20 23 22
4 4 5 6 6 7 8 9 11 13 11 12 13 13 14 14 13 13 13 13 12 13 14 17 19 17 16 15 14 15 18 20 13 13 11 12 11 14 16 19 20 23 23
4 5 6 6 7 8 9 11 10 13 13 15 19 16 15 14 14 15 15 15 15 14 17 18 18 16 16 18 16 17 18 26 19 14 13 13 11 12 14 18 20 24 24
3 4 3 4 6 9 12 12 12 14 16 16 13 15 14 14 16 15 15 14 15 16 17 20 21 18 16 16 17 17 17 15 11 12 11 12 13 14 15 18 21 27 28
2 2 2 3 4 6 9 11 14 16 17 19 19 18 19 19 18 18 18 17 16 16 18 19 17 14 16 13 11 10 11 11 11 14 13 12 13 13 15 20 23 26 28
2 1 1 2 5 7 10 12 13 14 14 15 15 16 18 20 21 19 17 19 19 18 18 18 16 18 15 12 10 10 12 12 10 12 14 14 13 13 13 16 19 25 29
2 3 5 6 7 8 10 11 13 14 14 14 14 14 15 17 18 19 15 14 19 19 18 16 12 13 13 9 9 13 15 15 15 14 14 15 14 12 14 13 13 19 26
4 6 6 7 9 12 15 17 19 19 20 20 19 16 15 15 16 17 15 12 11 14 14 17 16 14 16 16 16 16 17 18 18 17 16 16 16 15 13 16 16 15 18
7 9 8 9 11 13 13 15 18 20 22 22 23 22 19 17 14 14 14 10 12 13 13 14 15 17 20 21 18 18 19 18 19 18 17 17 16 15 15 15 19 18 17
10 12 11 11 12 13 13 16 18 17 18 24 25 25 22 21 17 13 12 14 15 15 14 16 17 17 19 18 20 19 20 17 15 16 17 17 17 17 18 17 18 21 28
14 15 13 12 13 13 19 19 16 18 25 25 30 28 22 21 20 17 14 13 15 15 13 13 16 16 18 20 22 23 19 17 14 15 15 17 18 18 19 19 19 20 20
16 15 14 16 20 22 23 21 23 24 26 30 33 30 22 21 20 19 18 17 17 17 15 15 15 15 16 20 22 22 19 17 16 16 17 17 19 18 19 22 22 20 18
17 19 20 21 21 23 26 26 26 26 28 29 22 19 20 23 22 23 27 24 22 21 21 18 18 17 16 17 19 21 20 20 19 20 21 21 19 20 21 21 23 25 24
21 20 21 23 24 25 26 27 28 28 26 25 21 20 25 27 25 27 26 27 26 25 24 22 20 20 19 18 19 19 21 21 22 23 23 23 21 21 22 22 22 24 26
24 24 23 22 22 22 23 24 25 24 22 21 21 21 24 26 25 28 28 32 29 31 27 24 21 24 23 22 22 22 23 25 25 26 26 26 26 25 23 23 22 22 25
18 19 19 19 17 17 18 20 21 20 20 19 21 22 22 22 26 28 29 28 27 29 34 34 35 32 32 29 32 32 29 28 29 30 30 29 28 26 24 24 23 24 26
20 18 16 15 13 14 15 16 17 18 17 17 18 21 23 27 30 32 33 27 30 32 33 36 40 36 38 37 35 34 38 35 32 32 32 31 29 28 26 23 23 23 23
14 13 13 13 12 12 11 11 12 13 15 16 18 20 22 24 25 27 30 29 28 31 34 34 41 38 42 44 43 43 36 42 42 38 33 30 30 29 29 26 24 24 23
11 11 10 10 10 10 9 9 11 12 13 14 16 17 18 19 21 24 26 26 30 31 31 33 32 21 36 35 32 17 33 44 44 49 37 28 29 29 30 29 27 25 24
9 9 10 11 11 11 11 12 13 14 16 16 17 18 19 19 20 20 21 21 22 24 26 25 20 17 16 21 19 16 18 23 25 33 46 49 43 30 29 28 26 25 26
11 12 11 12 12 12 13 17 19 19 19 20 21 21 21 21 19 17 15 15 13 14 14 12 14 13 20 18 15 14 16 15 16 15 19 25 31 41 48 41 37 40 38
11 11 12 13 14 15 18 19 20 21 21 22 23 23 22 22 22 20 19 15 16 13 16 16 19 19 13 15 16 20 18 18 14 21 23 20 17 21 30 39 44 47 50
Wind_Direction
157 159 163 158 163 179 196 215 240 275 292 304 300 300 295 291 280 273 281 300 289 267 290 270 292 266 256 250 242 236 226 219 223 215 216 215 218 216 217 215 210 208 202
151 155 166 152 168 191 260 281 293 295 298 298 289 288 290 294 291 285 282 284 288 286 290 267 276 258 286 269 254 242 234 233 234 225 219 220 218 219 219 221 218 214 212
138 163 171 183 222 261 280 296 300 304 306 302 297 298 293 291 294 286 281 281 291 284 286 274 270 278 265 285 251 247 244 236 235 231 228 223 224 220 220 219 217 216 215
190 217 228 240 280 311 303 300 302 302 297 296 295 294 296 294 280 271 271 272 274 272 274 269 264 281 270 267 267 260 253 246 237 237 233 227 228 225 223 221 222 217 215
211 240 274 277 284 289 291 292 301 298 290 284 284 282 289 288 293 286 273 268 274 279 270 264 262 283 269 266 268 260 254 244 237 235 233 229 224 229 225 222 221 216 214
226 242 258 266 267 270 284 291 289 293 292 298 290 287 285 289 292 291 285 281 284 276 266 271 277 280 272 268 266 261 261 271 229 230 236 238 240 238 228 224 221 213 212
240 248 251 255 268 282 306 313 303 301 312 323 304 288 294 293 290 287 293 284 284 273 269 269 270 279 282 264 270 266 270 286 199 220 236 241 241 238 231 230 224 214 215
220 228 241 290 327 323 328 344 329 320 313 310 301 293 291 289 290 290 289 284 283 281 277 273 270 274 278 280 277 267 260 281 240 217 241 252 252 246 241 235 230 222 218
120 85 43 357 344 318 321 326 315 315 313 305 300 295 291 283 279 280 281 278 272 278 275 293 268 263 277 279 298 269 251 255 260 237 250 268 268 262 253 240 247 230 228
176 223 284 307 313 318 324 325 324 324 323 317 309 300 289 287 284 279 268 274 277 274 277 286 274 270 277 278 281 275 266 266 254 242 250 260 268 264 255 254 235 231 236
254 275 289 298 297 301 309 311 313 312 313 313 314 313 305 295 289 288 283 268 273 270 266 276 273 264 260 270 285 275 271 273 266 260 257 254 254 267 255 256 242 240 245
323 301 300 299 286 294 310 315 315 315 314 311 307 306 309 307 296 290 287 279 269 267 268 263 258 264 255 265 279 289 285 270 257 258 263 249 249 252 258 254 257 260 252
287 280 287 296 301 300 304 304 302 302 303 304 301 301 302 303 306 295 286 272 267 255 257 256 264 269 265 255 269 280 288 274 263 263 258 248 250 251 250 255 254 253 248
265 279 293 302 302 304 298 305 299 295 307 304 292 290 293 296 298 296 283 271 270 274 276 274 259 262 275 255 254 278 284 269 267 255 251 257 253 252 251 249 249 253 256
277 292 300 294 281 291 306 303 309 302 297 302 296 276 274 280 286 288 288 287 287 289 283 280 276 267 257 256 268 272 276 266 278 266 264 265 264 258 255 252 253 259 281
302 299 298 292 294 298 303 303 306 300 297 309 291 263 265 272 277 283 286 283 283 285 284 281 274 272 262 255 255 260 263 272 272 269 266 274 277 276 266 259 258 261 260
298 300 304 302 304 299 301 300 298 297 298 304 302 255 254 265 275 275 287 282 278 278 281 278 278 278 274 269 257 255 257 257 260 263 267 271 274 275 272 266 260 256 259
301 305 304 303 300 298 298 297 296 296 297 303 311 261 269 276 272 277 277 274 273 275 274 277 283 284 282 277 272 263 260 262 263 263 264 266 266 264 264 263 262 257 252
307 306 306 306 305 303 301 298 298 298 295 289 294 285 275 277 264 283 276 283 265 260 269 277 281 283 282 281 280 274 267 262 262 264 267 269 269 267 263 258 252 250 250
309 312 315 315 315 311 306 306 306 305 298 287 283 274 273 278 273 275 284 289 266 265 259 258 270 266 271 265 267 275 277 270 268 268 267 267 267 267 266 262 257 250 244
325 328 329 328 325 319 315 309 305 303 303 296 289 284 280 278 279 280 282 282 269 267 266 262 266 267 265 261 257 251 255 265 269 265 266 267 267 266 268 268 264 261 256
332 335 340 342 342 339 332 320 315 313 311 310 308 301 299 297 296 292 288 282 285 277 276 276 272 276 271 268 269 267 255 257 258 262 261 262 263 263 265 264 262 262 260
345 350 355 358 355 352 352 355 354 349 343 340 334 326 319 315 314 307 302 293 281 275 279 280 285 279 282 266 281 277 272 269 258 253 259 262 260 262 261 262 261 258 256
354 348 347 349 349 350 355 353 350 345 338 333 328 322 318 316 315 317 314 313 297 290 289 295 301 282 271 280 287 287 285 278 279 271 260 259 258 262 261 260 257 258 257
353 350 350 354 356 356 352 346 342 341 339 338 335 333 331 331 331 330 322 324 334 342 333 329 315 289 293 280 288 291 298 304 306 312 294 288 272 257 254 263 260 263 265
346 348 350 348 344 339 339 341 342 341 339 334 332 331 330 330 334 339 343 335 327 321 315 316 311 309 298 291 305 309 301 308 301 310 307 292 287 272 266 261 264 265 259
Height
3216 3218 3219 3221 3222 3223 3224 3224 3225 3224 3225 3225 3225 3225 3225 3226 3225 3224 3224 3224 3223 3222 3222 3222 3221 3221 3221 3221 3221 3221 3220 3219 3219 3221 3221 3223 3225 3227 3229 3231 3233 3235 3236
3218 3220 3221 3222 3224 3224 3225 3225 3225 3225 3225 3225 3224 3224 3224 3223 3224 3223 3222 3222 3222 3221 3221 3220 3217 3218 3219 3220 3219 3220 3219 3218 3218 3219 3220 3220 3223 3224 3226 3229 3231 3233 3235
3220 3222 3223 3223 3224 3224 3225 3225 3224 3224 3224 3223 3223 3222 3221 3221 3222 3221 3221 3220 3219 3219 3219 3218 3217 3218 3215 3217 3217 3217 3217 3217 3217 3217 3218 3218 3220 3221 3223 3226 3228 3230 3233
3221 3222 3224 3224 3224 3224 3224 3223 3223 3223 3223 3222 3221 3220 3219 3219 3219 3219 3219 3218 3218 3217 3216 3216 3215 3215 3214 3213 3211 3215 3215 3214 3214 3215 3216 3218 3218 3219 3221 3223 3225 3227 3229
3220 3222 3222 3223 3223 3222 3222 3222 3220 3220 3220 3219 3219 3218 3217 3216 3217 3218 3217 3216 3215 3215 3214 3214 3214 3213 3212 3213 3213 3212 3210 3210 3211 3212 3214 3215 3216 3216 3218 3219 3221 3223 3226
3220 3221 3222 3222 3222 3221 3220 3219 3219 3218 3218 3217 3217 3216 3215 3214 3214 3215 3214 3214 3213 3213 3212 3211 3210 3211 3211 3210 3210 3209 3209 3192 3204 3208 3212 3212 3213 3213 3214 3216 3217 3220 3223
3220 3221 3222 3222 3222 3222 3220 3218 3218 3218 3216 3216 3213 3214 3213 3213 3212 3212 3211 3210 3209 3208 3208 3207 3207 3207 3207 3207 3207 3207 3205 3197 3199 3199 3208 3210 3210 3210 3211 3212 3214 3217 3219
3220 3220 3221 3221 3221 3220 3220 3216 3216 3215 3214 3214 3214 3211 3210 3210 3208 3207 3207 3206 3205 3204 3203 3202 3203 3203 3203 3203 3203 3203 3202 3200 3194 3200 3205 3206 3206 3207 3208 3209 3211 3212 3214
3219 3219 3219 3218 3217 3217 3216 3215 3214 3213 3212 3210 3210 3209 3207 3206 3205 3204 3203 3202 3201 3200 3199 3198 3198 3199 3199 3199 3198 3197 3199 3200 3200 3201 3202 3203 3203 3204 3205 3205 3206 3209 3211
3217 3217 3217 3216 3216 3215 3214 3213 3213 3212 3211 3209 3207 3205 3203 3201 3199 3199 3199 3198 3197 3197 3196 3196 3196 3196 3197 3197 3197 3196 3197 3197 3198 3198 3199 3200 3200 3200 3201 3202 3201 3204 3206
3216 3216 3217 3216 3215 3214 3213 3212 3211 3210 3208 3207 3205 3203 3201 3198 3196 3194 3194 3193 3192 3192 3192 3193 3193 3193 3194 3194 3194 3194 3195 3195 3196 3195 3196 3197 3197 3196 3197 3198 3198 3199 3200
3217 3217 3216 3215 3214 3214 3213 3212 3211 3210 3208 3206 3204 3201 3198 3195 3192 3190 3189 3189 3189 3189 3189 3190 3190 3190 3191 3190 3191 3191 3192 3192 3192 3192 3192 3193 3193 3193 3193 3193 3193 3193 3192
3215 3214 3214 3215 3214 3213 3211 3209 3207 3206 3205 3203 3201 3199 3197 3193 3190 3187 3186 3186 3186 3186 3186 3186 3186 3187 3187 3185 3188 3188 3188 3188 3188 3188 3188 3188 3188 3189 3189 3189 3189 3188 3187
3213 3212 3212 3212 3211 3210 3209 3206 3204 3202 3200 3198 3196 3195 3193 3191 3188 3185 3183 3182 3182 3183 3184 3184 3185 3185 3184 3182 3183 3185 3185 3184 3183 3183 3183 3183 3184 3184 3185 3185 3185 3183 3183
3212 3212 3211 3210 3208 3206 3204 3201 3199 3197 3194 3192 3190 3188 3187 3186 3186 3184 3181 3180 3179 3180 3180 3181 3181 3181 3180 3181 3180 3180 3180 3180 3180 3180 3180 3181 3180 3180 3181 3181 3180 3179 3178
3210 3208 3206 3205 3204 3201 3198 3196 3193 3190 3188 3184 3179 3179 3182 3182 3181 3181 3180 3178 3176 3175 3176 3176 3176 3176 3175 3175 3175 3175 3176 3176 3176 3176 3176 3177 3176 3176 3176 3176 3177 3176 3176
3205 3203 3202 3200 3198 3195 3192 3189 3187 3184 3182 3177 3169 3172 3174 3176 3176 3175 3175 3175 3173 3171 3171 3172 3172 3171 3171 3171 3170 3170 3171 3171 3171 3172 3172 3172 3171 3171 3171 3171 3171 3172 3174
3199 3199 3197 3194 3191 3188 3185 3182 3180 3178 3176 3173 3172 3170 3171 3170 3170 3170 3170 3169 3168 3167 3166 3166 3166 3167 3167 3166 3165 3165 3165 3165 3166 3165 3166 3167 3165 3165 3164 3164 3165 3166 3167
3195 3192 3190 3188 3185 3182 3179 3176 3173 3171 3170 3169 3168 3167 3167 3166 3166 3165 3164 3163 3161 3160 3160 3160 3160 3161 3161 3161 3161 3160 3159 3159 3159 3159 3159 3159 3158 3158 3157 3157 3157 3158 3160
3191 3188 3185 3183 3180 3177 3174 3171 3169 3166 3165 3164 3163 3162 3162 3161 3160 3159 3157 3155 3154 3154 3154 3154 3154 3153 3153 3152 3152 3152 3153 3152 3152 3151 3151 3150 3150 3150 3151 3150 3151 3151 3151
3185 3183 3180 3178 3176 3174 3171 3168 3166 3164 3162 3160 3158 3157 3155 3154 3153 3151 3149 3148 3147 3147 3147 3147 3147 3145 3145 3143 3142 3142 3142 3144 3143 3143 3142 3142 3142 3142 3142 3143 3144 3144 3144
3183 3181 3178 3176 3174 3172 3170 3168 3164 3161 3159 3156 3154 3152 3150 3147 3145 3142 3140 3139 3140 3140 3139 3139 3135 3135 3135 3135 3136 3135 3133 3130 3132 3132 3132 3134 3133 3133 3134 3135 3136 3136 3138
3182 3180 3177 3175 3173 3170 3168 3165 3162 3159 3157 3154 3151 3148 3145 3143 3140 3137 3134 3132 3131 3131 3130 3129 3126 3121 3119 3123 3125 3121 3122 3121 3122 3121 3123 3126 3124 3125 3125 3126 3127 3128 3129
3181 3178 3175 3173 3170 3167 3165 3163 3160 3157 3154 3152 3149 3146 3143 3140 3137 3133 3129 3126 3124 3123 3122 3120 3119 3120 3119 3118 3115 3115 3116 3114 3112 3111 3111 3112 3115 3116 3117 3118 3118 3120 3121
3179 3177 3174 3172 3169 3167 3164 3161 3158 3155 3152 3149 3146 3142 3139 3135 3133 3130 3126 3123 3121 3119 3117 3116 3116 3116 3115 3113 3112 3110 3110 3108 3106 3104 3101 3101 3102 3103 3106 3109 3110 3110 3113
3178 3176 3173 3171 3169 3166 3163 3160 3156 3153 3149 3146 3143 3140 3137 3133 3129 3126 3123 3121 3119 3118 3116 3114 3112 3109 3109 3108 3107 3106 3105 3102 3101 3099 3097 3096 3095 3094 3094 3095 3097 3099 3100